Weather Roundup
Issued by NWS Chicago, IL

Home | Current Version | Previous Version | Text Only | Print | Product List | Glossary On
Versions: 1 2 3 4 5 6 7 8 9 10 11 12 13 14 15 16 17 18 19 20 21 22 23 24 25 26 27 28 29 30 31 32 33 34 35 36 37 38 39 40 41 42 43 44 45 46 47 48 49 50
141
NZUS59 KLOT 301503
HRRLOT

CHICAGO AREA WEATHER ROUNDUP
NATIONAL WEATHER SERVICE CHICAGO/ROMEOVILLE IL
1000 AM CDT SUN APR 30 2017

NOTE: "FAIR" INDICATES FEW OR NO CLOUDS BELOW 12,000 FEET WITH NO
SIGNIFICANT WEATHER AND/OR OBSTRUCTIONS TO VISIBILITY.

* THESE STATIONS ARE NOT UNDER NWS QUALITY CONTROL. THEY ALSO MAY NOT
  REPORT WEATHER SUCH AS PRECIPITATION OR FOG.

ILZ005-006-012>014-019>023-301600-
NORTHEAST ILLINOIS

CITY           SKY/WX    TMP DP  RH WIND       PRES   REMARKS
OHARE          LGT RAIN  45  43  93 NE9       29.79S FOG
MIDWAY         CLOUDY    46  46 100 NE13G23   29.78R FOG
AURORA         CLOUDY    45  43  93 NE10G20   29.81R
LANSING*       LGT RAIN  48  48 100 E3        29.76F
JOLIET*        LGT RAIN  48  47  97 N7        29.78R
WAUKEGAN       LGT RAIN  42  42 100 NE13G26   29.82S FOG
DUPAGE AIRPORT LGT RAIN  44  44 100 NE10G20   29.81R FOG
WHEELING       LGT RAIN  43  43 100 NE9       29.82R
KANKAKEE*      CLOUDY    51  51  98 CALM      29.77R
MORRIS*        CLOUDY    47  45  95 N6        29.79R
NORTHERLY ISL    N/A     45  43  93 NE12        N/A
$$

WIZ051-052-058>065-066-070>072-301600-
SOUTHEAST WISCONSIN

CITY           SKY/WX    TMP DP  RH WIND       PRES   REMARKS
MILWAUKEE      LGT RAIN  42  42 100 NE18      29.87F VSB 1
KENOSHA*       LGT RAIN  42  40  92 NE17      29.85S VSB 1
RACINE*        LGT RAIN  42  40  92 NE15G24   29.88S FOG
WAUKESHA       LGT RAIN  39  37  93 NE17G23   29.89R VSB 1
WEST BEND      LGT RAIN  39  39 100 NE15G23   29.92R
$$

INZ001>003-010>013-019-020-301600-
NORTHWEST INDIANA

CITY           SKY/WX    TMP DP  RH WIND       PRES   REMARKS
GARY*          LGT RAIN  50  48  93 E9        29.75F FOG
MICHIGAN CITY* NOT AVBL
RENSSELAER*    NOT AVBL
VALPARAISO     RAIN      50  48  93 E13       29.77S FOG
$$

LMZ740>746-301600-
SOUTHERN LAKE MICHIGAN

STATION/POSITION TIME  SKY/WX   TEMP WIND        PRES    VSBY
                                AIR  DIR/SP/G
                 (UTC)          (F)  (DEG/KT/KT) (MB)    (MI)
HARRISON CRIB    1430            44   70/ 17/ 19   N/A
BURNHAM HARBOR   1500            45   40/  9/ 19   N/A
CALUMET HARBOR   1430            46   60/ 14/ 16 1007.8F
BURNS HARBOR     1440            48  100/  6/  9 1008.5F
MICHIGAN CITY    1440            47   80/ 13/ 15   N/A
$$

ABBREVIATIONS USED IN REMARKS
   TC - TEMPERATURE IN CELSIUS
  WCI - WIND CHILL INDEX
   HX - HEAT INDEX
  VSB - VISIBILITY
$$




USA.gov is the U.S. government's official web portal to all federal, state and local government web resources and services.